Time,TemperatureF,DewpointF,PressureIn,WindDirection,WindDirectionDegrees,WindSpeedMPH,WindSpeedGustMPH,Humidity,HourlyPrecipIn,Conditions,Clouds,dailyrainin,SoftwareType,DateUTC
2013-09-02 00:01:00,69.8,69.2,29.66,NNE,22,0.0,-999.0,98,-99.99,,,0.00,Acu-Link.com,2013-09-02 04:01:00,
2013-09-02 00:16:00,69.8,69.2,29.66,NNE,22,0.0,-999.0,98,-99.99,,,0.00,Acu-Link.com,2013-09-02 04:16:00,
2013-09-02 00:31:00,69.8,69.2,29.66,North,0,0.0,-999.0,98,-99.99,,,0.00,Acu-Link.com,2013-09-02 04:31:00,
2013-09-02 00:47:00,69.8,69.2,29.67,North,0,0.0,-999.0,98,-99.99,,,0.00,Acu-Link.com,2013-09-02 04:47:00,
2013-09-02 01:02:00,71.6,71.3,29.66,WNW,292,1.1,-999.0,99,-99.99,,,0.00,Acu-Link.com,2013-09-02 05:02:00,
2013-09-02 01:17:00,71.6,71.3,29.66,North,0,0.0,-999.0,99,-99.99,,,0.00,Acu-Link.com,2013-09-02 05:17:00,
2013-09-02 01:32:00,71.6,71.3,29.66,NE,45,1.1,-999.0,99,-99.99,,,0.00,Acu-Link.com,2013-09-02 05:32:00,
2013-09-02 01:47:00,71.6,71.3,29.66,NNE,22,0.0,-999.0,99,-99.99,,,0.00,Acu-Link.com,2013-09-02 05:47:00,
2013-09-02 02:03:00,69.8,69.5,29.66,SW,225,0.0,-999.0,99,-99.99,,,0.00,Acu-Link.com,2013-09-02 06:03:00,
2013-09-02 02:18:00,69.8,69.5,29.65,NNE,22,0.0,-999.0,99,-99.99,,,0.00,Acu-Link.com,2013-09-02 06:18:00,
2013-09-02 02:33:00,69.8,69.5,29.65,NNW,337,0.0,-999.0,99,-99.99,,,0.00,Acu-Link.com,2013-09-02 06:33:00,
2013-09-02 02:48:00,69.8,69.5,29.65,East,90,0.0,-999.0,99,-99.99,,,0.00,Acu-Link.com,2013-09-02 06:48:00,
2013-09-02 03:04:00,69.8,69.5,29.64,NNE,22,0.0,-999.0,99,-99.99,,,0.00,Acu-Link.com,2013-09-02 07:04:00,
2013-09-02 03:19:00,69.8,69.5,29.65,NNE,22,0.0,-999.0,99,-99.99,,,0.00,Acu-Link.com,2013-09-02 07:19:00,
2013-09-02 03:34:00,69.8,69.5,29.64,North,0,0.0,-999.0,99,-99.99,,,0.00,Acu-Link.com,2013-09-02 07:34:00,
2013-09-02 03:50:00,71.6,71.3,29.64,North,0,0.0,-999.0,99,-99.99,,,0.00,Acu-Link.com,2013-09-02 07:50:00,
2013-09-02 04:05:00,69.8,69.5,29.64,NNE,22,0.0,-999.0,99,-99.99,,,0.00,Acu-Link.com,2013-09-02 08:05:00,
2013-09-02 04:20:00,69.8,69.5,29.64,NE,45,0.0,-999.0,99,-99.99,,,0.00,Acu-Link.com,2013-09-02 08:20:00,
2013-09-02 04:36:00,69.8,69.5,29.63,NE,45,0.0,-999.0,99,-99.99,,,0.00,Acu-Link.com,2013-09-02 08:36:00,
2013-09-02 04:51:00,69.8,69.5,29.64,NE,45,0.0,-999.0,99,-99.99,,,0.00,Acu-Link.com,2013-09-02 08:51:00,
2013-09-02 05:06:00,69.8,69.5,29.64,NNE,22,0.0,-999.0,99,-99.99,,,0.00,Acu-Link.com,2013-09-02 09:06:00,
2013-09-02 05:21:00,69.8,69.5,29.64,NNE,22,0.0,-999.0,99,-99.99,,,0.00,Acu-Link.com,2013-09-02 09:21:00,
2013-09-02 05:36:00,69.8,69.5,29.64,NE,45,0.0,-999.0,99,-99.99,,,0.00,Acu-Link.com,2013-09-02 09:36:00,
2013-09-02 05:51:00,69.8,69.5,29.64,NE,45,0.0,-999.0,99,-99.99,,,0.00,Acu-Link.com,2013-09-02 09:51:00,
2013-09-02 06:07:00,69.8,69.5,29.63,East,90,0.0,-999.0,99,-99.99,,,0.00,Acu-Link.com,2013-09-02 10:07:00,
2013-09-02 06:22:00,69.8,69.5,29.63,North,0,0.0,-999.0,99,-99.99,,,0.00,Acu-Link.com,2013-09-02 10:22:00,
2013-09-02 06:37:00,69.8,69.5,29.64,North,0,0.0,-999.0,99,-99.99,,,0.00,Acu-Link.com,2013-09-02 10:37:00,
2013-09-02 06:53:00,69.8,69.5,29.64,North,0,0.0,-999.0,99,-99.99,,,0.00,Acu-Link.com,2013-09-02 10:53:00,
2013-09-02 07:08:00,69.8,69.5,29.65,NNW,337,0.0,-999.0,99,-99.99,,,0.00,Acu-Link.com,2013-09-02 11:08:00,
2013-09-02 07:23:00,69.8,69.5,29.66,North,0,0.0,-999.0,99,-99.99,,,0.00,Acu-Link.com,2013-09-02 11:23:00,
2013-09-02 07:39:00,69.8,69.5,29.66,North,0,0.0,-999.0,99,-99.99,,,0.00,Acu-Link.com,2013-09-02 11:39:00,
2013-09-02 07:54:00,69.8,69.5,29.65,North,0,0.0,-999.0,99,-99.99,,,0.00,Acu-Link.com,2013-09-02 11:54:00,
2013-09-02 08:09:00,69.8,69.5,29.66,North,0,0.0,-999.0,99,-99.99,,,0.00,Acu-Link.com,2013-09-02 12:09:00,
2013-09-02 08:24:00,73.4,73.1,29.66,North,0,0.0,-999.0,99,-99.99,,,0.00,Acu-Link.com,2013-09-02 12:24:00,
2013-09-02 08:39:00,77.0,75.1,29.67,North,0,0.0,-999.0,94,-99.99,,,0.00,Acu-Link.com,2013-09-02 12:39:00,
2013-09-02 08:54:00,80.6,75.3,29.67,NNW,337,0.0,-999.0,84,-99.99,,,0.00,Acu-Link.com,2013-09-02 12:54:00,
2013-09-02 09:10:00,78.8,74.2,29.67,NNW,337,0.0,-999.0,86,-99.99,,,0.00,Acu-Link.com,2013-09-02 13:10:00,
2013-09-02 09:25:00,80.6,74.2,29.69,SE,135,2.0,-999.0,81,-99.99,,,0.00,Acu-Link.com,2013-09-02 13:25:00,
2013-09-02 09:40:00,78.8,72.5,29.69,South,180,2.0,-999.0,81,-99.99,,,0.00,Acu-Link.com,2013-09-02 13:40:00,
2013-09-02 09:56:00,80.6,72.3,29.69,ESE,112,1.6,-999.0,76,-99.99,,,0.00,Acu-Link.com,2013-09-02 13:56:00,
2013-09-02 10:11:00,80.6,72.7,29.69,South,180,2.7,-999.0,77,-99.99,,,0.00,Acu-Link.com,2013-09-02 14:11:00,
2013-09-02 10:26:00,82.4,72.0,29.69,South,180,1.1,-999.0,71,-99.99,,,0.00,Acu-Link.com,2013-09-02 14:26:00,
2013-09-02 10:42:00,80.6,73.1,29.70,SSE,157,2.0,-999.0,78,-99.99,,,0.00,Acu-Link.com,2013-09-02 14:42:00,
2013-09-02 10:57:00,78.8,71.7,29.70,SE,135,2.7,-999.0,79,-99.99,,,0.00,Acu-Link.com,2013-09-02 14:57:00,
2013-09-02 11:12:00,80.6,73.1,29.70,South,180,2.0,-999.0,78,-99.99,,,0.00,Acu-Link.com,2013-09-02 15:12:00,
2013-09-02 11:27:00,82.4,72.9,29.70,ENE,67,3.1,-999.0,73,-99.99,,,0.00,Acu-Link.com,2013-09-02 15:27:00,
2013-09-02 11:42:00,82.4,72.9,29.70,South,180,3.6,-999.0,73,-99.99,,,0.00,Acu-Link.com,2013-09-02 15:42:00,
2013-09-02 11:58:00,80.6,71.9,29.70,SSE,157,2.7,-999.0,75,-99.99,,,0.00,Acu-Link.com,2013-09-02 15:58:00,
2013-09-02 12:13:00,84.2,73.8,29.70,WNW,292,0.0,-999.0,71,-99.99,,,0.00,Acu-Link.com,2013-09-02 16:13:00,
2013-09-02 12:28:00,86.0,74.6,29.70,South,180,1.6,-999.0,69,-99.99,,,0.00,Acu-Link.com,2013-09-02 16:28:00,
2013-09-02 12:43:00,84.2,72.0,29.70,South,180,2.0,-999.0,67,-99.99,,,0.00,Acu-Link.com,2013-09-02 16:43:00,
2013-09-02 12:58:00,86.0,71.9,29.69,South,180,2.7,-999.0,63,-99.99,,,0.00,Acu-Link.com,2013-09-02 16:58:00,
2013-09-02 13:14:00,93.2,71.7,29.69,East,90,1.1,-999.0,50,-99.99,,,0.00,Acu-Link.com,2013-09-02 17:14:00,
2013-09-02 13:29:00,89.6,71.8,29.68,South,180,3.1,-999.0,56,-99.99,,,0.00,Acu-Link.com,2013-09-02 17:29:00,
2013-09-02 13:44:00,87.8,70.1,29.68,SSE,157,5.6,-999.0,56,-99.99,,,0.00,Acu-Link.com,2013-09-02 17:44:00,
2013-09-02 13:59:00,87.8,70.6,29.68,South,180,4.0,-999.0,57,-99.99,,,0.00,Acu-Link.com,2013-09-02 17:59:00,
2013-09-02 14:14:00,89.6,69.6,29.67,South,180,3.6,-999.0,52,-99.99,,,0.00,Acu-Link.com,2013-09-02 18:14:00,
2013-09-02 14:29:00,89.6,68.5,29.67,South,180,3.6,-999.0,50,-99.99,,,0.00,Acu-Link.com,2013-09-02 18:29:00,
2013-09-02 14:45:00,89.6,71.3,29.66,SSE,157,3.6,-999.0,55,-99.99,,,0.00,Acu-Link.com,2013-09-02 18:45:00,
2013-09-02 15:00:00,87.8,71.7,29.65,SSE,157,4.7,-999.0,59,-99.99,,,0.00,Acu-Link.com,2013-09-02 19:00:00,
2013-09-02 15:15:00,89.6,71.8,29.65,South,180,5.6,-999.0,56,-99.99,,,0.00,Acu-Link.com,2013-09-02 19:15:00,
2013-09-02 15:30:00,89.6,71.3,29.64,South,180,3.6,-999.0,55,-99.99,,,0.00,Acu-Link.com,2013-09-02 19:30:00,
2013-09-02 15:45:00,91.4,71.8,29.63,WSW,247,2.7,-999.0,53,-99.99,,,0.00,Acu-Link.com,2013-09-02 19:45:00,
2013-09-02 16:01:00,91.4,70.7,29.63,ESE,112,3.6,-999.0,51,-99.99,,,0.00,Acu-Link.com,2013-09-02 20:01:00,
2013-09-02 16:16:00,91.4,72.4,29.63,South,180,0.0,-999.0,54,-99.99,,,0.00,Acu-Link.com,2013-09-02 20:16:00,
2013-09-02 16:31:00,91.4,71.8,29.62,South,180,3.6,-999.0,53,-99.99,,,0.00,Acu-Link.com,2013-09-02 20:31:00,
2013-09-02 16:46:00,93.2,73.5,29.62,South,180,2.7,-999.0,53,-99.99,,,0.00,Acu-Link.com,2013-09-02 20:46:00,
2013-09-02 17:02:00,95.0,74.0,29.61,WNW,292,0.0,-999.0,51,-99.99,,,0.00,Acu-Link.com,2013-09-02 21:02:00,
2013-09-02 17:17:00,95.0,72.2,29.61,NNE,22,1.1,-999.0,48,-99.99,,,0.00,Acu-Link.com,2013-09-02 21:17:00,
2013-09-02 17:32:00,95.0,73.4,29.61,ENE,67,1.6,-999.0,50,-99.99,,,0.00,Acu-Link.com,2013-09-02 21:32:00,
2013-09-02 17:48:00,95.0,72.8,29.61,NNE,22,1.6,-999.0,49,-99.99,,,0.00,Acu-Link.com,2013-09-02 21:48:00,
2013-09-02 18:03:00,91.4,72.9,29.60,ENE,67,1.6,-999.0,55,-99.99,,,0.00,Acu-Link.com,2013-09-02 22:03:00,
2013-09-02 18:18:00,87.8,71.1,29.60,WNW,292,1.6,-999.0,58,-99.99,,,0.00,Acu-Link.com,2013-09-02 22:18:00,
2013-09-02 18:33:00,86.0,72.4,29.60,North,0,1.6,-999.0,64,-99.99,,,0.00,Acu-Link.com,2013-09-02 22:33:00,
2013-09-02 18:49:00,84.2,72.5,29.61,North,0,0.0,-999.0,68,-99.99,,,0.00,Acu-Link.com,2013-09-02 22:49:00,
2013-09-02 19:04:00,82.4,72.4,29.61,North,0,0.0,-999.0,72,-99.99,,,0.00,Acu-Link.com,2013-09-02 23:04:00,
2013-09-02 19:19:00,80.6,72.3,29.61,North,0,0.0,-999.0,76,-99.99,,,0.00,Acu-Link.com,2013-09-02 23:19:00,
2013-09-02 19:34:00,78.8,71.7,29.61,NNE,22,2.0,-999.0,79,-99.99,,,0.00,Acu-Link.com,2013-09-02 23:34:00,
2013-09-02 19:49:00,78.8,72.1,29.61,NNE,22,0.0,-999.0,80,-99.99,,,0.00,Acu-Link.com,2013-09-02 23:49:00,
2013-09-02 20:05:00,77.0,70.7,29.61,NNE,22,0.0,-999.0,81,-99.99,,,0.00,Acu-Link.com,2013-09-03 00:05:00,
2013-09-02 20:20:00,77.0,71.4,29.61,NNE,22,0.0,-999.0,83,-99.99,,,0.00,Acu-Link.com,2013-09-03 00:20:00,
2013-09-02 20:35:00,77.0,72.1,29.63,NNE,22,0.0,-999.0,85,-99.99,,,0.00,Acu-Link.com,2013-09-03 00:35:00,
2013-09-02 21:06:00,75.2,71.4,29.64,NNE,22,0.0,-999.0,88,-99.99,,,0.00,Acu-Link.com,2013-09-03 01:06:00,
2013-09-02 21:21:00,75.2,71.4,29.64,NNE,22,0.0,-999.0,88,-99.99,,,0.00,Acu-Link.com,2013-09-03 01:21:00,
2013-09-02 21:37:00,75.2,71.7,29.64,NNE,22,0.0,-999.0,89,-99.99,,,0.00,Acu-Link.com,2013-09-03 01:37:00,
2013-09-02 21:52:00,75.2,72.1,29.65,NNE,22,0.0,-999.0,90,-99.99,,,0.00,Acu-Link.com,2013-09-03 01:52:00,
2013-09-02 22:07:00,73.4,70.3,29.65,NNE,22,0.0,-999.0,90,-99.99,,,0.00,Acu-Link.com,2013-09-03 02:07:00,
2013-09-02 22:22:00,73.4,70.6,29.65,NNE,22,0.0,-999.0,91,-99.99,,,0.00,Acu-Link.com,2013-09-03 02:22:00,
2013-09-02 22:37:00,73.4,70.9,29.65,NNE,22,0.0,-999.0,92,-99.99,,,0.00,Acu-Link.com,2013-09-03 02:37:00,
2013-09-02 22:52:00,73.4,71.2,29.65,NNE,22,0.0,-999.0,93,-99.99,,,0.00,Acu-Link.com,2013-09-03 02:52:00,
2013-09-02 23:08:00,73.4,71.2,29.65,NNE,22,0.0,-999.0,93,-99.99,,,0.00,Acu-Link.com,2013-09-03 03:08:00,
2013-09-02 23:23:00,73.4,71.6,29.65,NNE,22,0.0,-999.0,94,-99.99,,,0.00,Acu-Link.com,2013-09-03 03:23:00,
2013-09-02 23:38:00,73.4,71.9,29.64,NNE,22,0.0,-999.0,95,-99.99,,,0.00,Acu-Link.com,2013-09-03 03:38:00,
2013-09-02 23:54:00,73.4,72.5,29.65,NNE,22,0.0,-999.0,97,-99.99,,,0.00,Acu-Link.com,2013-09-03 03:54:00,